Weather History for Camdenton, MO

Change the Weather History Date:

Friday, July 5, 2013

  Actual Average (KAIZ) Record (KAIZ)
Temperature  
Mean Temperature 72 °F -  
Max Temperature 86 °F 84 °F 104 °F (2012)
Min Temperature 59 °F 65 °F 48 °F (1997)
Cooling Degree Days 8    
Growing Degree Days 22 (Base 50)    
Moisture  
Dew Point 59 °F    
Average Humidity 65    
Maximum Humidity 100    
Minimum Humidity 33    
Precipitation  
Precipitation 0.00 in - - ()
Sea Level Pressure  
Sea Level Pressure 30.04 in    
Wind  
Wind Speed 6 mph (SE)    
Max Wind Speed 10 mph    
Max Gust Speed -    
Visibility 10 miles    
Events Thunderstorm    
Averages and records for this station are not official NWS values.
T = Trace of Precipitation, MM = Missing Value Source: NWS Daily Summary

Daily Weather History Graph

Daily Weather History Graph

Search for Another Location

Airport:

Trip Planner

Search our weather history database for the weather conditions in past years. The results will help you decide how hot, cold, wet, or windy it might be!

Date:

Astronomy

Jul. 05, 2013 Rise Set
Actual Time 5:54 AM CDT 8:36 PM CDT
Civil Twilight 5:22 AM CDT 9:07 PM CDT
Nautical Twilight 4:44 AM CDT 9:46 PM CDT
Astronomical Twilight 4:00 AM CDT 10:30 PM CDT
Moon 3:52 AM CDT (7/5) 6:32 PM CDT (7/5)
Length of Visible Light 15h 44m
Length of Day
14h 42m
Waning Crescent, 6% of the Moon is Illuminated
Jul 5
Waning Crescent
Jul 8
New
Jul 15
First Quarter
Jul 22
Full
Jul 29
Last Quarter

Hourly Weather History & Observations

Time (CDT) Temp. Heat Index Dew Point Humidity Pressure Visibility Wind Dir Wind Speed Gust Speed Precip Events Conditions
12:15 AM 68.0 °F - 59.0 °F 73% 30.04 in 10.0 mi SE 4.6 mph - N/A   Clear
12:35 AM 62.6 °F - 59.0 °F 88% 30.04 in 10.0 mi SE 4.6 mph - N/A   Clear
12:55 AM 62.6 °F - 59.0 °F 88% 30.04 in 10.0 mi SE 4.6 mph - N/A   Clear
1:15 AM 62.6 °F - 59.0 °F 88% 30.04 in 10.0 mi SSE 4.6 mph - N/A   Clear
1:35 AM 64.4 °F - 59.0 °F 83% 30.04 in 10.0 mi SSE 5.8 mph - N/A   Clear
1:55 AM 62.6 °F - 59.0 °F 88% 30.03 in 10.0 mi SE 4.6 mph - N/A   Clear
2:15 AM 62.6 °F - 59.0 °F 88% 30.03 in 10.0 mi SSE 5.8 mph - N/A   Clear
2:35 AM 62.6 °F - 59.0 °F 88% 30.03 in 10.0 mi SE 4.6 mph - N/A   Clear
2:55 AM 62.6 °F - 59.0 °F 88% 30.03 in 10.0 mi SE 4.6 mph - N/A   Clear
3:15 AM 60.8 °F - 59.0 °F 94% 30.03 in 10.0 mi SE 4.6 mph - N/A   Clear
3:35 AM 59.0 °F - 59.0 °F 100% 30.03 in 10.0 mi SSE 5.8 mph - N/A   Clear
3:55 AM 60.8 °F - 59.0 °F 94% 30.03 in 10.0 mi SE 5.8 mph - N/A   Clear
4:15 AM 59.0 °F - 59.0 °F 100% 30.04 in 10.0 mi SE 4.6 mph - N/A   Clear
4:35 AM 62.6 °F - 59.0 °F 88% 30.04 in 10.0 mi SE 6.9 mph - N/A   Clear
4:55 AM 60.8 °F - 59.0 °F 94% 30.04 in 10.0 mi SE 6.9 mph - N/A   Clear
5:15 AM 60.8 °F - 59.0 °F 94% 30.04 in 10.0 mi SE 6.9 mph - N/A   Clear
5:35 AM 62.6 °F - 59.0 °F 88% 30.05 in 10.0 mi SE 8.1 mph - N/A   Clear
5:55 AM 60.8 °F - 59.0 °F 94% 30.05 in 10.0 mi SE 5.8 mph - N/A   Clear
6:15 AM 60.8 °F - 59.0 °F 94% 30.05 in 10.0 mi SE 4.6 mph - N/A   Clear
6:35 AM 62.6 °F - 59.0 °F 88% 30.05 in 10.0 mi SSE 5.8 mph - N/A   Clear
6:55 AM 62.6 °F - 59.0 °F 88% 30.06 in 10.0 mi SE 5.8 mph - N/A   Clear
7:15 AM 64.4 °F - 60.8 °F 88% 30.06 in 10.0 mi SE 6.9 mph - N/A   Clear
7:35 AM 64.4 °F - 60.8 °F 88% 30.06 in 10.0 mi SE 5.8 mph - N/A   Clear
7:55 AM 69.8 °F - 62.6 °F 78% 30.07 in 10.0 mi ESE 5.8 mph - N/A   Clear
8:15 AM 69.8 °F - 62.6 °F 78% 30.07 in 10.0 mi SE 8.1 mph - N/A   Clear
8:35 AM 69.8 °F - 64.4 °F 83% 30.08 in 10.0 mi SE 6.9 mph - N/A   Clear
8:55 AM 71.6 °F - 64.4 °F 78% 30.08 in 10.0 mi SE 8.1 mph - N/A   Clear
9:15 AM 73.4 °F - 62.6 °F 69% 30.08 in 10.0 mi SE 8.1 mph - N/A   Clear
9:35 AM 75.2 °F - 62.6 °F 65% 30.08 in 10.0 mi SE 6.9 mph - N/A   Clear
9:55 AM 77.0 °F - 62.6 °F 61% 30.07 in 10.0 mi SSE 4.6 mph - N/A   Clear
10:15 AM 78.8 °F - 60.8 °F 54% 30.07 in 10.0 mi SE 5.8 mph - N/A   Clear
10:35 AM 78.8 °F - 60.8 °F 54% 30.07 in 10.0 mi SSE 5.8 mph - N/A   Clear
10:55 AM 80.6 °F 81.5 °F 60.8 °F 51% 30.07 in 10.0 mi SE 8.1 mph - N/A   Clear
11:15 AM 80.6 °F 81.5 °F 60.8 °F 51% 30.07 in 10.0 mi ESE 5.8 mph - N/A   Clear
11:35 AM 80.6 °F 81.5 °F 60.8 °F 51% 30.07 in 10.0 mi South 4.6 mph - N/A   Clear
11:55 AM 80.6 °F 81.1 °F 59.0 °F 48% 30.07 in 10.0 mi South 5.8 mph - N/A   Clear
12:15 PM 82.4 °F 81.7 °F 55.4 °F 39% 30.07 in 10.0 mi South 5.8 mph - N/A   Clear
12:35 PM 82.4 °F 82.5 °F 59.0 °F 45% 30.07 in 10.0 mi SSE 4.6 mph - N/A   Clear
12:55 PM 84.2 °F 83.5 °F 57.2 °F 40% 30.06 in 10.0 mi South 5.8 mph - N/A   Clear
1:15 PM 82.4 °F 81.7 °F 55.4 °F 39% 30.06 in 10.0 mi SSE 6.9 mph - N/A   Clear
1:35 PM 84.2 °F 83.0 °F 55.4 °F 37% 30.05 in 10.0 mi SSW 4.6 mph - N/A   Scattered Clouds
1:55 PM 86.0 °F 84.5 °F 55.4 °F 35% 30.04 in 10.0 mi South 4.6 mph - N/A Thunderstorm Mostly Cloudy
2:15 PM 84.2 °F 83.0 °F 55.4 °F 37% 30.04 in 10.0 mi SSE 4.6 mph - N/A Thunderstorm Thunderstorm
2:35 PM 84.2 °F 83.8 °F 59.0 °F 42% 30.04 in 10.0 mi ESE 9.2 mph - N/A   Overcast
2:55 PM 80.6 °F 81.1 °F 59.0 °F 48% 30.04 in 10.0 mi East 8.1 mph - N/A   Overcast
3:15 PM 84.2 °F 83.5 °F 57.2 °F 40% 30.03 in 10.0 mi East 6.9 mph - N/A   Scattered Clouds
3:35 PM 82.4 °F 82.5 °F 59.0 °F 45% 30.03 in 10.0 mi ESE 6.9 mph - N/A   Clear
3:55 PM 84.2 °F 82.8 °F 53.6 °F 35% 30.03 in 10.0 mi SE 9.2 mph - N/A   Clear
4:15 PM 84.2 °F - 51.8 °F 33% 30.03 in 10.0 mi ESE 10.4 mph - N/A   Scattered Clouds
4:35 PM 86.0 °F 84.2 °F 53.6 °F 33% 30.02 in 10.0 mi ESE 6.9 mph - N/A   Scattered Clouds
4:55 PM 86.0 °F 84.5 °F 55.4 °F 35% 30.02 in 10.0 mi East 6.9 mph - N/A   Clear
5:15 PM 86.0 °F 84.5 °F 55.4 °F 35% 30.01 in 10.0 mi East 6.9 mph - N/A   Clear
5:35 PM 86.0 °F 84.5 °F 55.4 °F 35% 30.00 in 10.0 mi ESE 6.9 mph - N/A   Clear
5:55 PM 84.2 °F 83.0 °F 55.4 °F 37% 30.00 in 10.0 mi ESE 9.2 mph - N/A   Clear
6:15 PM 82.4 °F 82.5 °F 59.0 °F 45% 29.99 in 10.0 mi East 8.1 mph - N/A   Clear
6:35 PM 82.4 °F 82.0 °F 57.2 °F 42% 29.99 in 10.0 mi ESE 6.9 mph - N/A   Clear
6:55 PM 80.6 °F 81.1 °F 59.0 °F 48% 30.00 in 10.0 mi ESE 6.9 mph - N/A   Clear
7:15 PM 80.6 °F 81.1 °F 59.0 °F 48% 30.00 in 10.0 mi East 5.8 mph - N/A   Clear
7:35 PM 78.8 °F - 60.8 °F 54% 30.00 in 10.0 mi East 3.5 mph - N/A   Clear
7:55 PM 78.8 °F - 62.6 °F 57% 30.00 in 10.0 mi East 3.5 mph - N/A   Clear
8:15 PM 77.0 °F - 62.6 °F 61% 30.00 in 10.0 mi East 3.5 mph - N/A   Clear
8:35 PM 73.4 °F - 62.6 °F 69% 30.00 in 10.0 mi East 6.9 mph - N/A   Clear
8:55 PM 73.4 °F - 60.8 °F 65% 30.00 in 10.0 mi ESE 8.1 mph - N/A   Clear
9:15 PM 71.6 °F - 60.8 °F 69% 30.00 in 10.0 mi East 4.6 mph - N/A   Clear
9:35 PM 71.6 °F - 59.0 °F 64% 30.01 in 10.0 mi East 6.9 mph - N/A   Clear
9:55 PM 69.8 °F - 59.0 °F 68% 30.02 in 10.0 mi ESE 6.9 mph - N/A   Clear
10:15 PM 69.8 °F - 59.0 °F 68% 30.02 in 10.0 mi East 8.1 mph - N/A   Clear
10:35 PM 69.8 °F - 57.2 °F 64% 30.02 in 10.0 mi ESE 9.2 mph - N/A   Clear
10:55 PM 69.8 °F - 57.2 °F 64% 30.03 in 10.0 mi ESE 10.4 mph - N/A   Clear
11:15 PM 68.0 °F - 57.2 °F 68% 30.02 in 10.0 mi ESE 8.1 mph - N/A   Clear
11:35 PM 68.0 °F - 59.0 °F 73% 30.02 in 10.0 mi ESE 8.1 mph - N/A   Clear
11:55 PM 68.0 °F - 59.0 °F 73% 30.03 in 10.0 mi ESE 6.9 mph - N/A   Clear